Weather History for Fullerton, CA

Change the Weather History Date:

Saturday, October 19, 2013

  Actual Average Record
Temperature  
Mean Temperature 69 °F 67 °F  
Max Temperature 85 °F 78 °F 91 °F (2007)
Min Temperature 53 °F 57 °F 51 °F (2006)
Degree Days  
Heating Degree Days 0 1  
Month to date heating degree days 9 4  
Since 1 July heating degree days 9 5  
Cooling Degree Days 4 3  
Month to date cooling degree days 98 83  
Year to date cooling degree days 1849 1201  
Growing Degree Days 18 (Base 50)    
Moisture  
Dew Point 50 °F    
Average Humidity 56    
Maximum Humidity 83    
Minimum Humidity 28    
Precipitation  
Precipitation 0.00 in 0.03 in 0.32 in (2010)
Month to date precipitation 0.11 0.38  
Year to date precipitation 2.64 10.36  
Since 1 July precipitation 0.11 0.71  
Snow  
Snow 0.00 in - - ()
Month to date snowfall 0.0  
Year to date snowfall 0.0  
Since 1 July snowfall 0.0  
Snow Depth 0.00 in    
Sea Level Pressure  
Sea Level Pressure 29.97 in    
Wind  
Wind Speed 2 mph (SW)    
Max Wind Speed 9 mph    
Max Gust Speed 12 mph    
Visibility 10 miles    
Events      
T = Trace of Precipitation, MM = Missing Value Source: NWS Daily Summary

Daily Weather History Graph

Daily Weather History Graph

Search for Another Location

Airport:

Trip Planner

Search our weather history database for the weather conditions in past years. The results will help you decide how hot, cold, wet, or windy it might be!

Date:

Astronomy

Oct. 19, 2013 Rise Set
Actual Time 7:00 AM PDT 6:12 PM PDT
Civil Twilight 6:35 AM PDT 6:37 PM PDT
Nautical Twilight 6:05 AM PDT 7:07 PM PDT
Astronomical Twilight 5:37 AM PDT 7:35 PM PDT
Moon 6:47 PM PDT (10/19) 7:39 AM PDT (10/19)
Length of Visible Light 12h 02m
Length of Day
11h 12m
Full, 99% of the Moon is Illuminated
Oct 19
Full
Oct 26
Last Quarter
Nov 3
New
Nov 9
First Quarter
Nov 17
Full

Hourly Weather History & Observations

Time (PDT) Temp. Heat Index Dew Point Humidity Pressure Visibility Wind Dir Wind Speed Gust Speed Precip Events Conditions
12:53 AM 61.0 °F - 48.9 °F 64% 29.97 in 10.0 mi Calm Calm - N/A   Clear
1:53 AM 60.1 °F - 48.9 °F 67% 29.98 in 10.0 mi Calm Calm - N/A   Clear
2:53 AM 59.0 °F - 48.9 °F 69% 29.97 in 10.0 mi Calm Calm - N/A   Clear
3:53 AM 55.9 °F - 48.9 °F 77% 29.97 in 10.0 mi Calm Calm - N/A   Clear
4:53 AM 55.9 °F - 48.0 °F 75% 29.97 in 10.0 mi Calm Calm - N/A   Clear
5:53 AM 55.0 °F - 48.9 °F 80% 29.97 in 10.0 mi Calm Calm - N/A   Clear
6:53 AM 54.0 °F - 48.9 °F 83% 29.98 in 10.0 mi Calm Calm - N/A   Clear
7:53 AM 57.0 °F - 48.9 °F 74% 29.99 in 10.0 mi Calm Calm - N/A   Clear
8:53 AM 64.0 °F - 52.0 °F 65% 30.00 in 7.0 mi Calm Calm - N/A   Clear
9:53 AM 70.0 °F - 48.9 °F 47% 30.01 in 8.0 mi Calm Calm - N/A   Clear
10:53 AM 75.0 °F - 46.0 °F 36% 30.00 in 10.0 mi Calm Calm - N/A   Clear
11:53 AM 81.0 °F - 45.0 °F 28% 29.99 in 10.0 mi Variable 3.5 mph - N/A   Clear
12:53 PM 82.9 °F - 48.9 °F 31% 29.97 in 10.0 mi Variable 3.5 mph - N/A   Clear
1:53 PM 82.0 °F 82.0 °F 57.9 °F 44% 29.95 in 10.0 mi SSW 8.1 mph - N/A   Clear
2:53 PM 78.1 °F - 57.9 °F 50% 29.94 in 8.0 mi SSW 8.1 mph - N/A   Clear
3:53 PM 78.1 °F - 53.1 °F 42% 29.94 in 10.0 mi South 6.9 mph - N/A   Clear
4:53 PM 80.1 °F - 46.0 °F 30% 29.94 in 10.0 mi WSW 5.8 mph - N/A   Clear
5:53 PM 77.0 °F - 43.0 °F 30% 29.94 in 10.0 mi WSW 5.8 mph - N/A   Clear
6:53 PM 73.0 °F - 43.0 °F 34% 29.96 in 10.0 mi Calm Calm - N/A   Clear
7:53 PM 69.1 °F - 53.1 °F 57% 29.96 in 10.0 mi Calm Calm - N/A   Clear
8:53 PM 66.9 °F - 57.9 °F 73% 29.97 in 8.0 mi Calm Calm - N/A   Clear
9:53 PM 64.0 °F - 55.0 °F 73% 29.98 in 10.0 mi Calm Calm - N/A   Clear
10:53 PM 63.0 °F - 53.1 °F 70% 29.97 in 10.0 mi Calm Calm - N/A   Clear
11:53 PM 61.0 °F - 52.0 °F 72% 29.97 in 10.0 mi Calm Calm - N/A   Clear